Lid_Strength_Index
13 15 16 15 14 16 16 17 17 15 13 14 14 14 13 13 14 14 14 15 15 15 13 13 12 9 8 8 8 7 7 7 7 9 10 10 10 10 10 10 10 10 9 9
14 16 14 13 13 14 15 17 17 14 13 14 15 14 14 15 15 15 16 16 16 16 16 15 14 13 10 8 8 8 7 7 7 7 10 9 10 11 10 10 10 10 10 10
15 13 11 13 14 15 16 17 16 15 14 14 16 16 16 16 15 15 16 17 17 18 17 17 16 15 14 13 9 8 8 8 8 9 10 11 11 11 11 11 12 11 11 10
14 12 13 14 14 14 17 14 14 15 16 18 16 19 17 17 18 18 19 19 19 19 18 18 17 17 16 15 12 9 8 8 9 9 9 10 10 11 11 11 12 12 11 11
14 14 14 15 14 13 14 13 14 15 17 18 18 18 17 18 20 20 20 20 20 20 20 19 19 18 17 16 15 12 9 9 9 9 9 10 11 11 12 12 12 13 12 12
13 12 13 13 12 13 13 14 15 16 17 20 18 17 20 22 21 21 21 21 21 21 20 20 19 18 18 17 16 15 13 12 11 10 11 11 11 12 12 13 13 13 13 13
15 14 13 12 15 14 14 16 19 20 21 20 18 18 22 21 21 22 22 22 21 21 21 21 21 20 20 19 18 17 16 15 13 12 10 10 10 11 12 12 13 13 14 13
17 17 14 11 13 14 15 15 18 21 21 20 18 19 22 21 21 21 21 21 22 22 22 22 21 21 21 20 19 18 18 17 16 14 13 12 10 10 10 11 12 13 13 13
17 16 12 12 12 12 15 16 13 16 18 19 18 23 21 20 21 22 22 22 22 22 22 22 22 21 21 21 20 19 18 18 17 16 15 14 13 12 10 10 11 11 13 12
15 18 13 12 11 11 13 12 16 16 21 22 19 21 22 23 23 22 23 23 22 22 22 22 21 21 21 21 20 19 19 18 18 17 16 16 15 14 12 12 12 11 11 12
15 16 17 15 15 15 14 16 15 15 16 20 20 21 22 24 23 23 23 23 23 22 22 22 22 22 21 20 20 20 20 19 19 18 17 17 16 16 15 14 13 12 12 11
16 18 21 18 15 14 16 17 16 18 21 19 18 23 22 22 22 22 23 22 22 22 22 22 22 21 22 22 22 22 21 21 20 18 18 18 18 17 17 16 16 15 13 12
17 20 26 21 15 16 19 21 19 17 17 22 20 24 23 23 23 22 23 22 22 22 22 22 23 23 22 22 22 22 21 21 21 19 19 19 19 19 19 18 17 16 16 15
14 19 23 26 22 20 21 23 22 23 28 27 26 30 29 26 25 23 24 23 23 23 23 23 23 23 23 22 22 22 22 21 21 21 20 21 21 20 20 19 19 18 18 17
18 25 21 19 18 19 25 24 23 26 30 27 31 32 33 30 27 26 25 23 24 24 24 23 24 23 22 23 23 22 22 22 21 22 21 21 21 21 20 20 20 19 19 19
17 25 20 24 20 21 27 26 24 24 27 30 32 32 29 28 27 27 27 23 25 24 23 23 23 23 23 23 23 22 22 22 21 22 22 21 21 21 21 21 20 20 20 20
18 21 26 30 21 22 26 28 24 25 26 26 27 29 27 26 24 25 26 25 24 24 23 23 22 22 22 22 22 22 22 21 20 21 21 21 21 21 21 21 21 21 21 21
18 20 21 29 20 30 28 24 25 26 27 27 25 27 29 27 25 24 26 26 24 23 23 22 22 22 21 21 21 20 21 21 21 21 21 20 21 21 20 21 21 21 20 20
16 17 22 26 28 27 29 27 28 29 29 28 30 28 29 29 30 29 28 28 28 26 24 23 22 22 21 22 23 22 21 21 21 21 22 21 21 21 20 21 21 20 20 20
17 19 19 25 26 26 29 24 22 26 30 28 29 30 32 28 31 27 29 22 23 23 23 23 22 23 25 23 23 23 22 23 23 21 21 20 21 21 21 21 20 20 20 19
21 23 26 25 28 28 27 27 24 29 28 28 28 30 30 29 27 24 22 23 22 23 22 21 21 22 22 21 22 21 21 22 20 20 19 19 20 20 20 19 19 19 20 19
28 29 29 30 33 30 26 24 25 28 31 31 33 31 28 25 24 24 23 22 21 21 21 20 20 20 20 20 20 21 21 19 20 20 20 20 20 20 18 19 18 18 19 20
24 26 26 25 25 23 24 25 31 31 27 30 31 29 29 27 25 23 23 22 21 21 20 19 20 20 19 19 19 21 20 20 20 20 21 21 20 19 18 19 19 19 20 20
25 27 26 27 23 25 30 32 32 31 30 31 31 29 27 26 24 22 21 21 21 20 20 19 20 21 21 20 19 20 20 19 20 21 21 20 20 19 19 19 19 19 20 21
27 25 28 28 28 28 30 34 32 32 33 32 27 26 24 22 22 22 22 22 21 20 20 19 21 21 21 21 21 20 19 20 21 21 21 20 20 20 20 19 19 19 18 17
25 27 30 30 32 29 28 30 32 31 28 26 23 22 21 22 22 22 22 21 21 21 20 21 21 21 21 21 21 20 20 20 21 21 20 21 20 20 20 20 20 16 14 13